#timestamp,LO_Frequency,Hit,StdDev 
1546088415.7,286047002.6,N
1546088435.5,286047000.4,N
1546088455.3,286047000.7,N
1546088475.2,286047000.1,N
1546088495.0,286046998.2,N
1546088495.9,286046998.2,N
1546088545.8,286046998.3,E
1546088555.7,286047000.6,N
1546088575.5,286047000.4,P
1546088595.4,286047000.3,N
1546088615.2,286047000.5,Y
1546088635.0,286047001.2,P
1546088635.9,286047001.2,P
1546088655.8,286047000.2,N
1546088675.6,286047002.3,Y
1546088695.5,286047000.5,P
1546088715.3,286047000.9,P
1546088735.1,286047000.4,N
1546088755.9,286047000.6,N
1546088775.7,286047000.4,N
1546088795.5,286047000.4,N
1546088815.4,286046999.8,N
1546088835.2,286047000.4,N
1546088855.0,286047000.8,N
1546088856.0,286047000.8,N
1546088875.8,286046998.6,Y
1546088895.6,286046999.1,P
1546088915.5,286046998.4,N
1546088935.3,286046998.3,N
1546088955.1,286046998.2,N
1546088975.9,286046998.8,N
1546088995.7,286046999.1,N
1546089015.6,286046998.4,N
1546089035.4,286046998.6,N
1546089055.2,286047002.4,Y
1546089075.1,286047011.9,P
1546089076.0,286047004.3,N
1546089095.8,286047004.2,N
1546089115.6,286047005.9,N
1546089135.5,286047003.1,N
1546089155.3,286047004.3,N
1546089175.2,286047002.1,N
1546089195.9,286047002.5,N
1546089215.7,286047001.3,N
1546089235.6,286047004.4,N
1546089255.4,286047003.9,N
1546089275.2,286047003.8,N
1546089295.1,286047001.8,N
1546089296.0,286047001.8,N
1546089315.8,286047000.5,N
1546089335.7,286047000.0,N
1546089355.5,286047000.1,N
1546089375.3,286047001.8,N
1546089395.2,286047001.3,N
1546089415.0,286046999.8,N
1546089415.9,286046999.8,N
1546089435.8,286047002.8,N
1546089455.6,286047004.0,N
1546089475.4,286047003.8,N
1546089495.3,286047003.3,N
1546089515.1,286047003.3,N
1546089535.8,286047005.7,N
1546089555.7,286047003.2,N
1546089575.5,286047003.0,N
1546089595.4,286047006.0,N
1546089615.2,286047003.4,N
1546089635.0,286047004.1,N
1546089635.9,286047004.1,N
1546089655.8,286047003.3,N
1546089675.6,286047004.1,N
1546089695.5,286047003.1,N
1546089715.3,286047005.1,Y
1546089735.1,286047001.7,P
1546089755.9,286047001.8,P
1546089775.7,286047002.0,P
1546089795.6,286047000.1,N
1546089815.4,286047000.7,N
1546089835.2,286047000.4,N
1546089855.1,286047000.0,N
1546089856.0,286047000.0,N
1546089875.8,286047002.7,N
1546089895.6,286047001.4,N
1546089915.5,286047002.5,N
1546089935.3,286047001.0,N
1546089955.2,286046999.8,N
1546089975.9,286046999.7,N
1546089995.7,286047000.2,N
1546090015.6,286047000.9,N
1546090035.4,286047000.4,N
1546090055.2,286047000.2,N
1546090075.1,286047000.0,N
1546090076.0,286047000.0,N
1546090095.8,286046999.9,N
1546090115.7,286046998.1,N
1546090135.5,286047001.0,N
1546090155.3,286047000.3,N
1546090175.2,286047000.0,N
1546090195.0,286047001.9,N
1546090195.9,286047001.9,N
1546090215.8,286047001.7,N
1546090235.6,286047001.6,N
1546090255.4,286047000.9,N
1546090275.3,286047000.3,N
1546090295.1,286047000.4,N
1546090315.8,286047000.6,N
1546090335.7,286047002.3,N
1546090355.5,286047002.4,N
1546090375.4,286046999.7,N
1546090395.2,286046998.1,N
1546090415.0,286046999.9,N
1546090415.9,286046999.9,N
1546090435.3,286047000.3,N
1546090455.1,286047002.2,N
1546090475.9,286047004.0,Y
1546090495.7,286047002.0,P
1546090515.5,286047004.4,P
1546090535.4,286047003.2,N
1546090555.2,286047004.1,N
1546090575.1,286047002.1,N
1546090576.0,286047002.1,N
1546090595.8,286047002.3,N
1546090615.6,286047002.0,N
1546090635.5,286047002.8,N
1546090655.3,286046999.7,N
1546090675.1,286046999.8,N
1546090695.9,286047002.8,N
1546090715.7,286046999.7,N
1546090735.6,286047001.4,N
1546090755.4,286047002.1,N
1546090775.2,286047001.7,N
1546090795.1,286047002.4,N
1546090796.0,286047002.4,N
1546090815.8,286047002.4,N
1546090835.6,286047002.7,N
1546090855.5,286047001.9,N
1546090875.3,286047001.8,N
1546090895.2,286047000.1,N
1546090915.9,286047002.3,N
1546090935.7,286047002.2,N
1546090955.6,286047002.6,N
1546090975.4,286047001.6,N
1546090995.2,286047001.6,N
1546091015.1,286047004.3,Y
1546091016.0,286047004.3,P
1546091035.8,286047000.1,N
1546091055.7,286047002.4,N
1546091075.5,286047002.0,N
1546091095.3,286047003.2,N
1546091115.2,286047003.6,N
1546091135.0,286047001.4,N
1546091135.9,286047001.4,N
1546091155.8,286047004.1,Y
1546091175.6,286047002.4,P
1546091195.4,286046999.7,P
1546091215.3,286046999.8,N
1546091235.1,286047000.5,N
1546091255.8,286047000.8,N
1546091275.7,286047000.5,N
1546091295.5,286046999.9,N
1546091315.4,286047001.2,N
1546091335.2,286047000.4,N
1546091355.0,286047000.5,N
1546091355.9,286047000.5,N
1546091375.8,286046998.3,N
1546091395.6,286046999.0,N
1546091415.4,286046999.3,N
1546091435.3,286046999.0,N
1546091455.1,286046998.4,N
1546091475.9,286046998.6,N
1546091495.7,286047000.2,N
1546091515.5,286047001.2,N
1546091535.4,286046998.3,N
1546091555.2,286046998.3,N
1546091575.1,286046998.3,N
1546091576.0,286046998.3,N
1546091595.8,286046998.8,N
1546091615.6,286047001.0,N
1546091635.5,286047000.7,N
1546091655.3,286046998.3,N
1546091675.1,286046998.2,N
1546091695.9,286046999.0,N
1546091715.7,286046998.9,N
1546091735.6,286047000.6,N
1546091755.4,286047000.8,N
1546091775.2,286046998.1,N
1546091795.1,286046999.1,N
1546091796.0,286046999.1,N
1546091815.8,286046999.6,N
1546091835.7,286046999.2,N
1546091855.5,286046996.6,Y
1546091875.3,286046999.2,P
1546091895.2,286046999.6,P
1546091915.0,286046999.3,P
1546091915.9,286046999.3,Y
1546091935.8,286046998.4,P
1546091955.6,286046998.5,P
1546091975.4,286047000.2,N
1546091995.3,286046999.8,N
